Hourly Weather Roundup
Issued by NWS Central Illinois

Home | Current Version | Previous Version | Text Only | Print | Product List | Glossary On
Versions: 1 2 3 4 5 6 7 8 9 10 11 12 13 14 15 16 17 18 19 20 21 22 23 24 25 26 27 28 29 30 31 32 33 34 35 36 37 38 39 40 41 42 43 44 45 46 47 48 49 50
000
NZUS43 KILX 301110
HWRILX

AREA WEATHER ROUNDUP
NATIONAL WEATHER SERVICE, LINCOLN IL
600 AM CDT FRI SEP 30 2016


CITY           SKY/WX    TMP DP  RH WIND       PRES   REMARKS
BLOOMINGTON    LGT RAIN  59  58  96 N13       30.11F FOG
CHAMPAIGN      CLOUDY    60  57  89 NE13      30.08R
DANVILLE       CLOUDY    58  58  99 N6        30.05R
DECATUR        CLOUDY    60  58  92 N10       30.09S
EFFINGHAM      CLOUDY    60  60 100 NW9       30.07S
FLORA          CLOUDY    60  59  96 NW6       30.04F FOG
GALESBURG      CLOUDY    58  55  89 N10       30.18S
JACKSONVILLE   CLOUDY    58  56  92 NW6       30.14S
LACON          CLOUDY    58  57  97 N8        30.13F FOG
LAWRENCEVILLE  RAIN      60  57  89 N8        30.04R FOG
LITCHFIELD     CLOUDY    57  55  93 NW8       30.11S FOG
$$


CITY           SKY/WX    TMP DP  RH WIND       PRES   REMARKS
LINCOLN        CLOUDY    60  60 100 N7        30.10F FOG
MACOMB         CLOUDY    59  55  86 N9        30.19F
MATTOON        CLOUDY    59  57  93 N10       30.05R
MT CARMEL AP   CLOUDY    59  57  95 NW7       30.03S FOG
OLNEY-NOBLE AP CLOUDY    59  59 100 CALM      30.05R FOG
PARIS          LGT RAIN  59  59 100 CALM      30.07R
PEORIA         CLOUDY    58  58 100 N7        30.14S
PONTIAC        CLOUDY    61  61 100 N7        30.12F
RANTOUL        CLOUDY    61  59  95 N9        30.08R
ROBINSON       LGT RAIN  58  58  99 N6        30.05R
SPRINGFIELD    CLOUDY    60  58  92 N9        30.13R
TAYLORVILLE    DRIZZLE   58  58  98 NW7       30.10S
$$

...REGIONAL REPORTS...


CITY           SKY/WX    TMP DP  RH WIND       PRES   REMARKS
CHICAGO O`HARE CLOUDY    61  58  90 NE10      30.15S
KANKAKEE       CLOUDY    60  58  96 N8        30.11F
MOLINE         CLOUDY    59  53  80 N8        30.20S
MOUNT STERLING CLOUDY    57  54  88 N7        30.16S
MOUNT VERNON   CLOUDY    59  54  82 CALM      30.07F
PITTSFIELD     CLOUDY    60  56  85 N6        30.16S
QUINCY         PTCLDY    57  53  86 N10       30.17F
ROCKFORD       DRIZZLE   60  57  89 N14       30.21S
$$


CITY           SKY/WX    TMP DP  RH WIND       PRES   REMARKS
BURLINGTON     PTCLDY    55  53  93 N9        30.19S
CEDAR RAPIDS   CLEAR     51  50  96 N10       30.24S
DES MOINES     CLEAR     55  49  80 N9        30.28R
KIRKSVILLE     CLEAR     53  48  83 N9        30.22S
OTTUMWA        CLEAR     51  47  86 N9        30.24R
ST LOUIS       CLOUDY    62  56  80 N10       30.12F
$$


CITY           SKY/WX    TMP DP  RH WIND       PRES   REMARKS
TERRE HAUTE    CLOUDY    59  58  96 N5        30.04R
EVANSVILLE     HVY RAIN  57  54  89 N6        30.03R FOG
INDIANAPOLIS   CLOUDY    60  58  92 NE8       30.04S
LAFAYETTE      CLOUDY    59  59 100 NE9       30.06R
MADISON        CLOUDY    57  55  93 N12       30.24F
MILWAUKEE      CLOUDY    61  56  83 NE9       30.22R
$$





USA.gov is the U.S. government's official web portal to all federal, state and local government web resources and services.